This demonstration page uses our WeatherBlox Daily Observations layout. Learn more.

Left ArrowRight Arrow

Hourly Observations for July 18, 2019

Temp ( °F °C ) Dew Point ( °F °C ) Humidity (%) Winds ( mph kmh ) Pressure ( in mb ) Visibility ( mi km ) Precip ( " mm )
12:53 am 00:53 Clear 74 23.3 73 22.8 97 97 N N/A 29.95 1014 10 16 N/A
1:53 am 01:53 Clear 74 23.3 73 22.8 97 97 N N/A 29.95 1014 10 16 N/A
2:53 am 02:53 Clear 72 22.2 71 21.7 97 97 N N/A 29.93 1014 10 16 N/A
3:53 am 03:53 Clear 72 22.2 71 21.7 97 97 N N/A 29.93 1013 7 11 N/A
4:53 am 04:53 Mostly Clear with Mist and Fog 71 21.7 71 21.7 100 100 N N/A 29.92 1013 6 10 N/A
5:08 am 05:08 Mostly Cloudy 71 21.7 70 21.1 96 96 N N/A 29.92 1013 8 13 N/A
5:24 am 05:24 Partly Cloudy with Mist and Fog 71 21.7 71 21.7 100 100 N N/A 29.92 1013 6 10 N/A
5:43 am 05:43 Partly Cloudy with Mist and Fog 71 21.7 70 21.1 96 96 N N/A 29.93 1014 2 3 N/A
5:45 am 05:45 Mostly Cloudy with Mist and Fog 71 21.7 70 21.1 96 96 N N/A 29.93 1014 1 2 N/A
5:53 am 05:53 Mostly Cloudy with Fog 71 21.7 70 21.1 96 96 N N/A 29.93 1014 1 1 N/A
6:12 am 06:12 Mostly Cloudy with Mist and Fog 71 21.7 70 21.1 96 96 N N/A 29.94 1014 2 3 N/A
6:14 am 06:14 Mostly Cloudy with Mist and Fog 71 21.7 70 21.1 96 96 N N/A 29.94 1014 3 5 N/A
6:23 am 06:23 Partly Cloudy with Mist and Fog 70 21.1 70 21.1 100 100 N N/A 29.94 1014 4 6 N/A
6:32 am 06:32 Partly Cloudy with Mist and Fog 71 21.7 70 21.1 96 96 N N/A 29.95 1014 2 3 N/A
6:34 am 06:34 Mostly Cloudy with Mist and Fog 71 21.7 70 21.1 96 96 N N/A 29.95 1014 1 1 N/A
6:44 am 06:44 Partly Cloudy with Mist and Fog 71 21.7 70 21.1 96 96 N N/A 29.95 1014 2 2 N/A
6:46 am 06:46 Partly Cloudy with Mist and Fog 70 21.1 69 20.6 97 97 N N/A 29.95 1014 3 5 N/A
6:53 am 06:53 Mostly Sunny 70 21.1 69 20.6 97 97 N N/A 29.96 1014 9 14 N/A
7:53 am 07:53 Sunny 75 23.9 73 22.8 94 94 N N/A 29.97 1015 10 16 N/A
8:53 am 08:53 Sunny 79 26.1 73 22.8 82 82 N N/A 29.98 1015 10 16 N/A
9:53 am 09:53 Sunny 83 28.3 75 23.9 77 77 N N/A 29.98 1015 10 16 N/A
10:53 am 10:53 Sunny 85 29.4 76 24.4 75 75 VRB 3 6 29.96 1015 10 16 N/A
11:53 am 11:53 Partly Cloudy 88 31.1 75 23.9 66 66 WSW 7 11 29.96 1015 10 16 N/A
12:53 pm 12:53 Mostly Sunny 89 31.7 75 23.9 63 63 W 6 9 29.96 1015 10 16 N/A
1:53 pm 13:53 Mostly Cloudy with Light Thunderstorms 85 29.4 74 23.3 70 70 WSW 14 22 29.96 1015 3 4 0.02 0.51
1:55 pm 13:55 Mostly Cloudy with Thunderstorms 81 27.2 74 23.3 79 79 WSW 13 20 29.96 1015 2 2 0.02 0.51
2:09 pm 14:09 Mostly Cloudy with Light Thunderstorms 78 25.6 72 22.2 82 82 VRB 3 6 29.95 1014 3 5 0.12 3.05
2:19 pm 14:19 Cloudy with Nearby Thunderstorms 79 26.1 72 22.2 79 79 E 5 7 29.95 1014 7 11 0.14 3.56
2:28 pm 14:28 Mostly Cloudy with Light Thunderstorms 78 25.6 74 23.3 87 87 S 5 7 29.95 1014 7 11 0.15 3.81
2:43 pm 14:43 Partly Cloudy 78 25.6 75 23.9 90 90 VRB 3 6 29.94 1014 10 16 0.15 3.81
2:53 pm 14:53 Mostly Cloudy with Thunderstorms 78 25.6 74 23.3 87 87 W 8 13 29.98 1015 3 4 0.15 3.81
2:57 pm 14:57 Mostly Cloudy with Heavy Thunderstorms 76 24.4 74 23.3 94 94 SW 6 9 29.97 1015 2 2 0.01 0.25
3:02 pm 15:02 Mostly Cloudy with Light Thunderstorms 76 24.4 74 23.3 94 94 SSW 7 11 29.96 1014 2 3 0.02 0.51
3:10 pm 15:10 Mostly Cloudy with Light Thunderstorms 77 25 74 23.3 90 90 VRB 3 6 29.94 1014 9 14 0.03 0.76
3:23 pm 15:23 Partly Cloudy with Nearby Thunderstorms 82 27.8 75 23.9 79 79 N N/A 29.93 1013 10 16 0.04 1.02
3:34 pm 15:34 Mostly Sunny 83 28.3 74 23.3 74 74 N N/A 29.95 1014 10 16 0.04 1.02
3:39 pm 15:39 Partly Cloudy with Heavy Thunderstorms 82 27.8 75 23.9 79 79 NW 12 19 29.95 1014 2 3 0.05 1.27
3:46 pm 15:46 Mostly Cloudy with Heavy Thunderstorms 77 25 73 22.8 88 88 NNW 9 15 29.94 1014 1 1 0.07 1.78
3:53 pm 15:53 Mostly Cloudy with Heavy Thunderstorms 76 24.4 71 21.7 85 85 NNW 31 50 29.97 1015 1 2 0.11 2.79
4:00 pm 16:00 Cloudy with Heavy Thunderstorms 75 23.9 69 20.6 82 82 N 28 44 29.95 1014 0 0 0.03 0.76
4:12 pm 16:12 Cloudy with Heavy Thunderstorms 75 23.9 69 20.6 82 82 NE 25 41 29.99 1015 0 0 0.11 2.79
4:15 pm 16:15 Mostly Cloudy with Heavy Thunderstorms 76 24.4 69 20.6 79 79 SSE 15 24 29.97 1015 0 0 0.14 3.56
4:25 pm 16:25 Cloudy with Light Thunderstorms 77 25 70 21.1 79 79 VRB 5 7 29.94 1014 1 1 0.25 6.35
4:28 pm 16:28 Cloudy with Light Thunderstorms 78 25.6 69 20.6 74 74 NNE 12 19 29.96 1015 2 3 0.29 7.37
4:31 pm 16:31 Cloudy with Light Thunderstorms 78 25.6 70 21.1 76 76 NNE 17 28 29.96 1015 5 8 0.32 8.13
4:34 pm 16:34 Cloudy with Heavy Thunderstorms 75 23.9 71 21.7 88 88 NE 17 28 29.98 1015 1 2 0.36 9.14
4:42 pm 16:42 Cloudy with Heavy Thunderstorms 74 23.3 72 22.2 94 94 NNW 14 22 29.98 1015 1 1 0.46 11.68
4:53 pm 16:53 Mostly Cloudy with Light Thunderstorms 77 25 71 21.7 82 82 NNE 10 17 29.95 1014 1 1 0.63 16.00
4:57 pm 16:57 Mostly Cloudy with Light Rain 78 25.6 72 22.2 82 82 ENE 7 11 29.93 1014 2 3 0.06 1.52
5:02 pm 17:02 Partly Cloudy 79 26.1 74 23.3 85 85 VRB 6 9 29.93 1014 10 16 0.14 3.56
5:53 pm 17:53 Sunny 82 27.8 73 22.8 74 74 VRB 5 7 29.91 1013 10 16 0.85 21.59
6:53 pm 18:53 Sunny 83 28.3 73 22.8 72 72 N N/A 29.90 1013 10 16 0.06 1.52
7:53 pm 19:53 Sunny 83 28.3 74 23.3 74 74 VRB 3 6 29.88 1012 10 16 N/A
8:53 pm 20:53 Sunny 82 27.8 74 23.3 77 77 N N/A 29.88 1012 10 16 N/A
9:53 pm 21:53 Clear 80 26.7 73 22.8 79 79 N N/A 29.90 1013 10 16 N/A
10:53 pm 22:53 Clear 75 23.9 73 22.8 94 94 N N/A 29.91 1013 10 16 N/A
11:53 pm 23:53 Clear 75 23.9 73 22.8 94 94 N N/A 29.93 1013 10 16 N/A

Powered by AerisWeather